Location: Austin
(30.3000°N, 97.7500°W)
Time: 03:33:00
(UTC-05:00)

Cosmos 407 Rocket - Pass Details

Date: 18 March 2023
Orbit: 742 x 786 km, 74.0° (Epoch: 01 April)

Event Time Altitude Azimuth Distance (km) Brightness Sun altitude
Rises 20:39:58 0° 352° (N) 3,261 7.0 -13.5°
Reaches altitude 10° 20:42:28 10° 359° (N) 2,336 6.1 -14.0°
Maximum altitude 20:47:31 44° 71° (ENE) 1,078 3.9 -15.1°
Enters shadow 20:51:12 18° 136° (SE) 1,858 5.0 -15.9°
